GW5115 Weather Reports


time (UTC)temp
F
wind
direction
speed
knots
gust
knots
rain 1hr
in
rain 24hr
in
rain mn
in
humidity
%
barometer
mb
20260510214230 73 327 1.7 3.5 0.00 0.00 0.00 65 1017.3
20260510213726 72 26 4.3 6.1 0.00 0.00 0.00 63 1016.9
20260510213223 72 69 1.7 2.6 0.00 0.00 0.00 63 1017.1
20260510212719 71 36 1.7 3.5 0.00 0.00 0.00 67 1016.9
20260510212217 72 73 3.5 6.1 0.00 0.00 0.00 66 1017.0
20260510211714 72 45 1.7 7.0 0.00 0.00 0.00 65 1016.8
20260510211208 71 58 4.3 6.1 0.00 0.00 0.00 66 1016.8
20260510210705 72 36 3.5 5.2 0.00 0.00 0.00 63 1016.7
20260510210200 72 94 3.5 5.2 0.00 0.00 0.00 64 1016.6
20260510205700 70 46 3.5 7.8 0.00 0.00 0.00 67 1016.9
20260510205155 70 35 4.3 8.7 0.00 0.00 0.00 68 1016.7
20260510204652 71 22 2.6 6.1 0.00 0.00 0.00 68 1016.7
20260510204149 71 60 5.2 6.1 0.00 0.00 0.00 66 1016.7
20260510203645 71 3 5.2 7.8 0.00 0.00 0.00 66 1016.6
20260510203142 71 41 1.7 11.3 0.00 0.00 0.00 66 1016.7
20260510202636 72 336 3.5 6.1 0.00 0.00 0.00 68 1016.9
20260510202131 71 44 6.1 9.6 0.00 0.00 0.00 66 1016.8
20260510201629 74 26 5.2 6.1 0.00 0.00 0.00 64 1016.6
20260510201126 74 2 6.1 8.7 0.00 0.00 0.00 64 1016.6
20260510200622 73 42 3.5 7.0 0.00 0.00 0.00 66 1016.8
20260510200120 73 22 5.2 8.7 0.00 0.00 0.00 63 1016.7
20260510195618 74 21 3.5 7.8 0.00 0.00 0.00 66 1017.1
20260510195113 71 359 4.3 7.8 0.00 0.00 0.00 64 1016.9
20260510194613 71 8 4.3 6.1 0.00 0.00 0.00 64 1017.2
20260510194110 72 344 5.2 9.6 0.00 0.00 0.00 64 1016.9
20260510193610 73 62 2.6 8.7 0.00 0.00 0.00 65 1016.8
20260510193106 73 22 7.0 9.6 0.00 0.00 0.00 64 1016.9
20260510192601 74 27 2.6 8.7 0.00 0.00 0.00 62 1016.9
20260510192057 73 37 4.3 7.0 0.00 0.00 0.00 61 1016.7
20260510191554 73 27 3.5 8.7 0.00 0.00 0.00 62 1016.8
20260510191051 73 314 7.8 9.6 0.00 0.00 0.00 61 1017.1
20260510190548 72 288 1.7 7.0 0.00 0.00 0.00 64 1017.1
20260510190045 73 354 3.5 7.0 0.00 0.00 0.00 63 1017.0
20260510185536 73 34 5.2 8.7 0.00 0.00 0.00 64 1016.9
20260510185034 71 340 6.1 8.7 0.00 0.00 0.00 65 1017.2
20260510184531 73 27 6.1 7.8 0.00 0.00 0.00 62 1016.9
20260510184026 72 338 2.6 5.2 0.00 0.00 0.00 64 1017.0
20260510183521 73 45 7.8 14.8 0.00 0.00 0.00 64 1016.8
20260510183017 73 11 8.7 11.3 0.00 0.00 0.00 62 1016.9
20260510182514 72 332 5.2 11.3 0.00 0.00 0.00 65 1016.9
20260510182008 73 341 5.2 7.0 0.00 0.00 0.00 67 1016.9
20260510181507 73 341 5.2 8.7 0.00 0.00 0.00 66 1016.9
20260510181002 73 47 0.9 6.1 0.00 0.00 0.00 68 1016.8
20260510180500 72 311 3.5 5.2 0.00 0.00 0.00 66 1016.7
20260510175957 72 326 0.9 3.5 0.00 0.00 0.00 65 1016.6
20260510175452 71 16 1.7 9.6 0.00 0.00 0.00 66 1016.7
20260510174948 72 8 5.2 9.6 0.00 0.00 0.00 68 1016.7
20260510174446 72 20 7.0 7.8 0.00 0.00 0.00 65 1016.7
20260510173943 71 15 1.7 3.5 0.00 0.00 0.00 69 1016.8
20260510173439 70 288 2.6 7.8 0.00 0.00 0.00 70 1016.8
20260510172935 70 337 4.3 7.8 0.00 0.00 0.00 69 1016.8
20260510172431 68 33 5.2 7.0 0.00 0.00 0.00 72 1016.9
20260510171928 68 338 4.3 9.6 0.00 0.00 0.00 73 1016.7
20260510171425 68 35 5.2 7.0 0.00 0.00 0.00 72 1016.8
20260510170921 68 14 3.5 8.7 0.00 0.00 0.00 72 1016.8
20260510170418 68 12 6.1 7.8 0.00 0.00 0.00 72 1016.9
20260510165913 69 8 3.5 7.8 0.00 0.00 0.00 72 1017.0
20260510165410 70 42 1.7 3.5 0.00 0.00 0.00 70 1016.9
20260510164908 70 13 2.6 5.2 0.00 0.00 0.00 70 1016.8
20260510164405 70 13 3.5 6.1 0.00 0.00 0.00 69 1016.8
20260510163904 71 7 5.2 7.8 0.00 0.00 0.00 65 1016.9
20260510163401 71 340 4.3 8.7 0.00 0.00 0.00 68 1016.8
20260510162855 70 322 5.2 6.1 0.00 0.00 0.00 67 1016.7
20260510162354 70 335 5.2 7.8 0.00 0.00 0.00 69 1016.7
20260510161848 70 305 1.7 1.7 0.00 0.00 0.00 68 1016.8
20260510161344 70 339 0.0 0.0 0.00 0.00 0.00 66 1016.8
20260510160841 69 338 0.0 0.0 0.00 0.00 0.00 74 1016.8
20260510160339 69 339 0.0 0.0 0.00 0.00 0.00 72 1016.6
20260510155832 68 338 0.0 0.0 0.00 0.00 0.00 71 1016.8
20260510155330 69 315 1.7 2.6 0.00 0.00 0.00 68 1016.8
20260510154826 69 36 3.5 6.1 0.00 0.00 0.00 66 1017.0
20260510154321 69 346 3.5 3.5 0.00 0.00 0.00 63 1016.9
20260510153816 70 284 0.9 1.7 0.00 0.00 0.00 62 1016.3
20260510153312 71 293 0.0 1.7 0.00 0.00 0.00 61 1015.9
20260510152809 70 292 1.7 2.6 0.00 0.00 0.00 62 1016.0
20260510152307 69 27 0.9 0.9 0.00 0.00 0.00 63 1016.1
20260510151803 69 349 1.7 3.5 0.00 0.00 0.00 63 1016.4
20260510151301 69 13 1.7 5.2 0.00 0.00 0.00 63 1016.7
20260510150756 71 17 3.5 7.0 0.00 0.00 0.00 62 1016.6
20260510150252 71 272 2.6 2.6 0.00 0.00 0.00 61 1016.6
20260510145748 69 275 2.6 3.5 0.00 0.00 0.00 62 1016.4
20260510145245 69 297 4.3 8.7 0.00 0.00 0.00 62 1016.7
20260510144740 69 7 3.5 7.0 0.00 0.00 0.00 63 1016.2
20260510144238 68 281 1.7 8.7 0.00 0.00 0.00 64 1016.6
20260510143732 69 223 4.3 6.1 0.00 0.00 0.00 65 1016.7
20260510143229 68 306 2.6 3.5 0.00 0.00 0.00 65 1016.6
20260510142725 68 327 2.6 3.5 0.00 0.00 0.00 65 1016.4
20260510142222 67 6 3.5 6.1 0.00 0.00 0.00 67 1016.6
20260510141719 68 14 4.3 7.0 0.00 0.00 0.00 66 1016.9
20260510141218 68 256 2.6 7.0 0.00 0.00 0.00 66 1016.6
20260510140714 68 235 1.7 3.5 0.00 0.00 0.00 66 1016.4
20260510140213 68 238 1.7 6.1 0.00 0.00 0.00 65 1016.4
20260510135708 68 274 3.5 7.8 0.00 0.00 0.00 63 1016.3
20260510135204 67 250 5.2 7.0 0.00 0.00 0.00 66 1016.6
20260510134701 68 320 7.0 9.6 0.00 0.00 0.00 66 1016.2
20260510134159 67 263 7.0 7.8 0.00 0.00 0.00 67 1016.3
20260510133654 67 265 2.6 3.5 0.00 0.00 0.00 69 1016.4
20260510133150 66 15 4.3 7.0 0.00 0.00 0.00 67 1016.3
20260510132646 66 356 3.5 5.2 0.00 0.00 0.00 68 1016.1
20260510132144 66 221 0.9 7.8 0.00 0.00 0.00 71 1016.4
20260510131641 66 214 3.5 6.1 0.00 0.00 0.00 69 1016.6
20260510131139 66 231 1.7 6.1 0.00 0.00 0.00 70 1016.4
20260510130635 66 209 2.6 3.5 0.00 0.00 0.00 70 1016.6
20260510130133 66 213 1.7 2.6 0.00 0.00 0.00 72 1016.3
20260510125629 66 174 1.7 1.7 0.00 0.00 0.00 71 1016.4
20260510125125 65 180 1.7 2.6 0.00 0.00 0.00 79 1016.3
20260510124622 62 266 0.0 2.6 0.00 0.00 0.00 82 1016.2
20260510124119 61 138 0.0 0.0 0.00 0.00 0.00 89 1016.4
20260510123609 59 144 0.0 0.0 0.00 0.00 0.00 89 1016.4
20260510123106 58 126 0.9 0.9 0.00 0.00 0.00 86 1016.6
20260510122601 58 124 0.0 0.9 0.00 0.00 0.00 88 1016.4
20260510122057 54 110 0.0 0.0 0.00 0.00 0.00 95 1016.4
20260510121554 53 110 0.0 0.0 0.00 0.00 0.00 99 1016.3
20260510121052 52 110 0.0 0.0 0.00 0.00 0.00 99 1016.3
20260510120550 53 110 0.0 0.0 0.00 0.00 0.00 99 1016.1
20260510120049 51 110 0.0 0.0 0.00 0.00 0.00 99 1015.9
20260510115547 51 110 0.0 0.0 0.00 0.00 0.00 99 1016.0
20260510115044 51 89 0.0 0.0 0.00 0.00 0.00 99 1016.1
20260510114539 50 86 0.0 0.0 0.00 0.00 0.00 99 1015.7
20260510114036 50 86 0.0 0.0 0.00 0.00 0.00 99 1016.0
20260510113531 48 86 0.0 0.0 0.00 0.00 0.00 99 1015.8
20260510113029 47 86 0.0 0.0 0.00 0.00 0.00 99 1015.9
20260510112525 46 86 0.0 0.0 0.00 0.00 0.00 99 1015.4
20260510112022 45 86 0.0 0.0 0.00 0.00 0.00 99 1015.3
20260510111519 44 85 0.0 0.0 0.00 0.00 0.00 99 1015.4
20260510111014 44 85 0.0 0.0 0.00 0.00 0.00 99 1015.1
20260510110511 44 85 0.0 0.0 0.00 0.00 0.00 99 1014.9
20260510110007 44 85 0.0 0.0 0.00 0.00 0.00 99 1015.0
20260510105502 44 85 0.0 0.0 0.00 0.00 0.00 99 1014.9
20260510104958 44 85 0.0 0.0 0.00 0.00 0.00 99 1014.9
20260510104454 43 85 0.0 0.0 0.00 0.00 0.00 99 1015.0
20260510103951 43 85 0.0 0.0 0.00 0.00 0.00 99 1014.8
20260510103448 43 86 0.0 0.9 0.00 0.00 0.00 99 1014.7
20260510102943 43 85 0.0 0.0 0.00 0.00 0.00 99 1014.6
20260510102439 44 85 0.0 0.0 0.00 0.00 0.00 99 1014.7
20260510101936 43 85 0.0 0.0 0.00 0.00 0.00 99 1014.8
20260510101434 43 102 0.0 0.9 0.00 0.00 0.00 99 1015.0
20260510100932 44 103 0.0 0.0 0.00 0.00 0.00 99 1014.5
20260510100428 44 102 0.0 0.0 0.00 0.00 0.00 99 1014.4
20260510095924 44 103 0.0 0.0 0.00 0.00 0.00 99 1014.4
20260510095420 44 102 0.0 0.9 0.00 0.00 0.00 99 1014.3
20260510094919 44 102 0.0 0.0 0.00 0.00 0.00 99 1014.1
20260510094414 44 102 0.0 0.0 0.00 0.00 0.00 99 1014.2
20260510093911 44 102 0.0 0.0 0.00 0.00 0.00 99 1014.2
20260510093406 44 102 0.0 0.0 0.00 0.00 0.00 99 1014.1
20260510092904 44 102 0.0 0.0 0.00 0.00 0.00 99 1014.1
20260510092401 44 102 0.0 0.0 0.00 0.00 0.00 99 1014.0
20260510091901 44 102 0.0 0.0 0.00 0.00 0.00 99 1013.9
20260510091358 45 102 0.0 0.0 0.00 0.00 0.00 99 1014.1
20260510090855 44 102 0.0 0.0 0.00 0.00 0.00 99 1013.8
20260510090351 45 102 0.0 0.0 0.00 0.00 0.00 99 1013.7
20260510085847 44 102 0.0 0.9 0.00 0.00 0.00 99 1013.8
20260510085342 45 108 1.7 1.7 0.00 0.00 0.00 99 1013.8
20260510084837 44 75 0.0 0.0 0.00 0.00 0.00 99 1013.6
20260510084335 44 69 0.9 0.9 0.00 0.00 0.00 99 1013.8
20260510083831 45 52 0.0 0.0 0.00 0.00 0.00 99 1013.7
20260510083328 45 49 0.0 0.0 0.00 0.00 0.00 99 1013.6
20260510082824 45 49 0.0 0.0 0.00 0.00 0.00 99 1013.7
20260510082321 45 49 0.0 0.0 0.00 0.00 0.00 99 1013.7
20260510081820 45 44 0.0 0.0 0.00 0.00 0.00 99 1013.6
20260510081316 45 44 0.0 0.0 0.00 0.00 0.00 99 1013.6
20260510080812 45 25 0.0 0.0 0.00 0.00 0.00 99 1013.4
20260510080307 45 20 0.0 0.0 0.00 0.00 0.00 99 1013.5
20260510075805 45 20 0.0 0.0 0.00 0.00 0.00 99 1013.4
20260510075305 45 20 0.0 0.0 0.00 0.00 0.00 99 1013.4
20260510074759 45 36 0.0 0.0 0.00 0.00 0.00 99 1013.4
20260510074255 45 109 0.0 0.9 0.00 0.00 0.00 99 1013.2
20260510073751 45 347 1.7 3.5 0.00 0.00 0.00 99 1013.4
20260510073248 44 124 0.0 0.0 0.00 0.00 0.00 99 1013.3
20260510072743 45 354 0.0 0.0 0.00 0.00 0.00 99 1013.2
20260510072240 45 354 0.0 0.0 0.00 0.00 0.00 99 1013.4
20260510071737 45 354 0.0 0.0 0.00 0.00 0.00 99 1013.4
20260510071233 45 353 0.0 0.0 0.00 0.00 0.00 99 1013.3
20260510070732 45 351 0.0 0.0 0.00 0.00 0.00 99 1013.5
20260510070229 45 351 0.0 0.0 0.00 0.00 0.00 99 1013.3
20260510065723 46 351 0.0 0.0 0.00 0.00 0.00 99 1013.6
20260510065220 46 129 0.0 0.0 0.00 0.00 0.00 99 1013.4
20260510064717 45 129 0.0 0.0 0.00 0.00 0.00 99 1013.3
20260510064214 45 129 0.0 0.0 0.00 0.00 0.00 99 1013.4
20260510063711 45 129 0.0 0.0 0.00 0.00 0.00 99 1013.5
20260510063207 47 129 0.0 0.0 0.00 0.00 0.00 99 1013.6
20260510062704 46 128 0.0 0.0 0.00 0.00 0.00 99 1013.4
20260510062200 46 128 0.0 0.0 0.00 0.00 0.00 99 1013.3
20260510061655 46 162 0.0 0.0 0.00 0.00 0.00 99 1013.6
20260510061152 47 162 0.0 0.0 0.00 0.00 0.00 99 1013.5
20260510060649 47 162 0.0 0.0 0.00 0.00 0.00 99 1013.4
20260510060145 46 162 0.0 0.0 0.00 0.00 0.00 99 1013.5
20260510055641 46 162 0.0 0.0 0.00 0.00 0.00 99 1013.6
20260510055140 46 162 0.0 0.0 0.00 0.00 0.00 99 1013.6
20260510054635 46 162 0.0 0.0 0.00 0.00 0.00 99 1013.7
20260510054131 46 162 0.0 0.0 0.00 0.00 0.00 99 1013.6
20260510053630 46 162 0.0 0.0 0.00 0.00 0.00 99 1013.7
20260510053127 46 162 0.0 0.0 0.00 0.00 0.00 99 1013.6
20260510052623 46 162 0.0 0.0 0.00 0.00 0.00 99 1013.6
20260510052119 47 162 0.0 0.0 0.00 0.00 0.00 99 1013.8
20260510051614 46 162 0.0 0.0 0.00 0.00 0.00 99 1013.8
20260510051112 47 164 0.0 0.0 0.00 0.00 0.00 99 1013.8
20260510050609 47 164 0.0 0.0 0.00 0.00 0.00 99 1013.8
20260510050106 47 164 0.0 0.0 0.00 0.00 0.00 99 1014.0
20260510045603 47 164 0.0 0.0 0.00 0.00 0.00 99 1013.9
20260510045059 47 164 0.0 0.0 0.00 0.00 0.00 99 1014.0
20260510044556 47 164 0.0 0.0 0.00 0.00 0.00 99 1013.9
20260510044053 48 164 0.0 0.0 0.00 0.00 0.00 99 1013.9
20260510043549 48 164 0.0 0.0 0.00 0.00 0.00 99 1013.8
20260510043045 48 164 0.0 0.0 0.00 0.00 0.00 99 1014.2
20260510042544 48 164 0.0 0.0 0.00 0.00 0.00 99 1014.0
20260510042039 48 164 0.0 0.0 0.00 0.00 0.00 99 1013.8
20260510041537 48 164 0.0 0.0 0.00 0.00 0.00 99 1013.8
20260510041034 49 164 0.0 0.0 0.00 0.00 0.00 99 1013.7
20260510040531 49 164 0.0 0.0 0.00 0.00 0.00 99 1013.8
20260510040027 49 164 0.0 0.0 0.00 0.00 0.00 99 1014.0
20260510035523 49 164 0.0 0.0 0.00 0.00 0.00 99 1014.0
20260510035023 49 164 0.0 0.0 0.00 0.00 0.00 99 1013.9
20260510034521 49 164 0.0 0.0 0.00 0.00 0.00 99 1013.8
20260510034018 50 164 0.0 0.0 0.00 0.00 0.00 99 1013.7
20260510033513 49 164 0.0 0.0 0.00 0.00 0.00 99 1013.6
20260510033012 50 164 0.0 0.0 0.00 0.00 0.00 99 1013.7
20260510032508 50 164 0.0 0.0 0.00 0.00 0.00 99 1013.7
20260510032008 50 164 0.0 0.0 0.00 0.00 0.00 99 1013.8
20260510031504 50 166 0.0 0.0 0.00 0.00 0.00 99 1013.7
20260510031000 50 169 0.0 0.0 0.00 0.00 0.00 99 1013.4
20260510030455 51 170 0.0 0.0 0.00 0.00 0.00 99 1013.3
20260510025953 51 169 0.0 0.0 0.00 0.00 0.00 99 1013.4
20260510025450 51 170 0.0 0.0 0.00 0.00 0.00 99 1013.4
20260510024947 51 170 0.0 0.0 0.00 0.00 0.00 99 1013.3
20260510024444 52 170 0.0 0.0 0.00 0.00 0.00 99 1013.2
20260510023939 52 170 0.0 0.0 0.00 0.00 0.00 99 1013.4
20260510023436 52 170 0.0 0.0 0.00 0.00 0.00 98 1013.2
20260510022933 52 170 0.0 0.0 0.00 0.00 0.00 98 1013.2
20260510022432 52 170 0.0 0.0 0.00 0.00 0.00 97 1013.2
20260510021931 52 170 0.0 0.0 0.00 0.00 0.00 97 1013.1
20260510021430 53 170 0.0 0.0 0.00 0.00 0.00 97 1012.9
20260510020926 53 170 0.0 0.0 0.00 0.00 0.00 97 1013.1
20260510020427 53 170 0.0 0.0 0.00 0.00 0.00 96 1012.9
20260510015923 53 170 0.0 0.0 0.00 0.00 0.00 96 1013.0
20260510015419 54 170 0.0 0.0 0.00 0.00 0.00 96 1012.9
20260510014914 54 170 0.0 0.0 0.00 0.00 0.00 95 1012.4
20260510014412 54 170 0.0 0.0 0.00 0.00 0.00 95 1012.4
20260510013908 55 170 0.0 0.0 0.00 0.00 0.00 94 1012.2
20260510013403 55 170 0.0 0.0 0.00 0.00 0.00 92 1012.3
20260510012858 56 170 0.0 0.0 0.00 0.00 0.00 92 1012.3
20260510012353 56 170 0.0 0.0 0.00 0.00 0.00 92 1012.1
20260510011848 56 170 0.9 1.7 0.00 0.00 0.00 91 1012.1
20260510011344 56 169 0.9 1.7 0.00 0.00 0.00 90 1012.1
20260510010840 57 183 0.0 0.9 0.00 0.00 0.00 90 1012.0
20260510010338 58 183 0.0 0.0 0.00 0.00 0.00 88 1012.1
20260510005834 58 183 0.0 0.0 0.00 0.00 0.00 87 1012.0
20260510005330 59 183 0.0 0.0 0.00 0.00 0.00 86 1012.0
20260510004828 60 183 0.0 0.0 0.00 0.00 0.00 85 1011.8
20260510004326 61 184 0.0 0.0 0.00 0.00 0.00 80 1011.8
20260510003823 62 184 0.0 0.9 0.00 0.00 0.00 80 1011.7
20260510003320 63 184 0.0 1.7 0.00 0.00 0.00 74 1011.6
20260510002819 65 177 0.0 0.0 0.00 0.00 0.00 71 1011.4
20260510002316 65 206 0.9 1.7 0.00 0.00 0.00 67 1011.4
20260510001812 66 288 0.9 2.6 0.00 0.00 0.00 65 1011.5
20260510001311 67 232 0.9 1.7 0.00 0.00 0.00 65 1011.4
20260510000806 67 287 2.6 3.5 0.00 0.00 0.00 63 1011.5
20260510000305 67 234 3.5 5.2 0.00 0.00 0.00 62 1011.2
20260509235801 68 254 1.7 6.1 0.00 0.00 0.00 62 1011.2
20260509235258 68 311 3.5 3.5 0.00 0.00 0.00 61 1011.3
20260509234753 68 211 1.7 5.2 0.00 0.00 0.00 60 1011.1
20260509234250 69 264 2.6 6.1 0.00 0.00 0.00 59 1011.4
20260509233749 69 290 0.9 2.6 0.00 0.00 0.00 58 1011.1
20260509233246 69 200 2.6 3.5 0.00 0.00 0.00 60 1011.2
20260509232741 69 195 2.6 7.0 0.00 0.00 0.00 58 1011.2
20260509232239 68 313 0.0 3.5 0.00 0.00 0.00 59 1011.2
20260509231735 69 320 0.9 1.7 0.00 0.00 0.00 58 1011.2
20260509231232 69 271 2.6 6.1 0.00 0.00 0.00 58 1011.2
20260509230730 69 298 0.9 7.0 0.00 0.00 0.00 58 1011.1
20260509230227 71 317 3.5 6.1 0.00 0.00 0.00 56 1011.2
20260509225722 71 259 1.7 6.1 0.00 0.00 0.00 56 1011.1
20260509225218 71 322 2.6 6.1 0.00 0.00 0.00 54 1011.2
20260509224713 73 314 1.7 2.6 0.00 0.00 0.00 53 1010.7
20260509224211 71 235 0.0 0.9 0.00 0.00 0.00 56 1011.0
20260509223708 71 289 5.2 7.8 0.00 0.00 0.00 55 1011.0
20260509223205 72 308 4.3 9.6 0.00 0.00 0.00 53 1010.9
20260509222702 71 289 3.5 6.1 0.00 0.00 0.00 54 1011.0
20260509222158 71 304 4.3 7.8 0.00 0.00 0.00 55 1011.0
20260509221653 71 268 3.5 3.5 0.00 0.00 0.00 54 1011.1
20260509221149 70 267 1.7 5.2 0.00 0.00 0.00 56 1011.3
20260509220645 71 320 1.7 7.0 0.00 0.00 0.00 57 1011.5
20260509220141 71 287 5.2 12.2 0.00 0.00 0.00 55 1011.3
20260509215638 71 263 3.5 7.8 0.00 0.00 0.00 57 1011.3
20260509215135 70 293 3.5 11.3 0.00 0.00 0.00 55 1011.2
20260509214632 70 255 5.2 7.8 0.00 0.00 0.00 57 1011.2